Regional Weather Roundup
Issued by NWS

Home | Current Version | Previous Version | Text Only | Print | Product List | Glossary Off
Versions: 1 2 3 4 5 6 7 8 9 10 11 12 13 14 15 16 17 18 19 20 21 22 23 24 25 26 27 28 29 30 31 32 33 34 35 36 37 38 39 40 41 42 43 44 45 46 47 48 49 50

000
ASUS45 KPSR 162110
RWRAZ

ARIZONA HOURLY REGIONAL WEATHER ROUNDUP
NATIONAL WEATHER SERVICE PHOENIX AZ
200 PM MST MON OCT 16 2017

NOTE: FAIR INDICATES FEW OR NO CLOUDS BELOW 12,000 FEET WITH NO
SIGNIFICANT WEATHER AND/OR OBSTRUCTIONS TO VISIBILITY.

AZZ001>003-036-162200-
NORTHWEST ARIZONA

CITY           SKY/WX    TMP DP  RH WIND       PRES   REMARKS
BULLHEAD CITY  MOSUNNY   86   5   4 N23G31    30.06F
KINGMAN        SUNNY     84  20   9 NE7       30.22F
$$

AZZ004>008-015-016-018-162200-
NORTH CENTRAL ARIZONA

CITY           SKY/WX    TMP DP  RH WIND       PRES   REMARKS
GRAND CANYON   SUNNY     73   3   6 CALM      30.40F
WILLIAMS       SUNNY     75  23  14 W12       30.40F
PRESCOTT       MOSUNNY   79  25  13 N6        30.29F
FLAGSTAFF      SUNNY     73  24  16 SW9G17    30.41F
PAYSON           N/A     79  25  13 S10       30.31F
PAGE           SUNNY     67  12  12 NE5       30.32F
$$

AZZ009>014-017-162200-
NORTHEAST ARIZONA

CITY           SKY/WX    TMP DP  RH WIND       PRES   REMARKS
WINSLOW        SUNNY     75   8   7 NW6       30.32F
SAINT JOHNS    SUNNY     79  15   9 VRB6      30.32F
WINDOW ROCK    SUNNY     76  13   9 VRB3      30.39F
SHOW LOW       SUNNY     75  18  11 S5G12     30.38F
$$

AZZ540-542>544-546-548-162200-
GREATER PHOENIX AREA

CITY           SKY/WX    TMP DP  RH WIND       PRES   REMARKS
PHOENIX        PTSUNNY   96  34  11 E8        30.00F
BUCKEYE        SUNNY     93  82  70 E13       30.01F HX 117
GLENDALE       MOSUNNY   97  32  10 MISG      30.02F
LUKE AFB       SUNNY     96  30  10 SE6       29.99F
DEER VALLEY    MOSUNNY   94  27   9 E6        30.02F
SCOTTSDALE     MOSUNNY   95  34  11 E6        30.04F
MESA-FALCON    MOSUNNY   93  36  13 N8        30.03F
MESA-GATEWAY   MOSUNNY   95  36  12 SE9       30.03F
CHANDLER       SUNNY     97  36  11 E7        30.01F
$$

AZZ539-553-162200-
SOUTHWEST MARICOPA COUNTY AND PINAL COUNTY

CITY           SKY/WX    TMP DP  RH WIND       PRES   REMARKS
CASA GRANDE    NOT AVBL
GILA BEND      MOSUNNY   95  36  12 E10       29.96F
$$

AZZ503-504-507>509-162200-
SOUTHEAST ARIZONA

CITY           SKY/WX    TMP DP  RH WIND       PRES   REMARKS
TUCSON         SUNNY     92  41  17 E8G16     30.10F
DAVIS-MONTHAN  SUNNY     91  37  15 SE7       30.08F
RYAN FIELD     SUNNY     91  39  16 E9        30.08F
NOGALES        SUNNY     89  43  20 SW6       30.16F
SIERRA VISTA   SUNNY     83  42  23 E6        30.26F
DOUGLAS        SUNNY     83  44  25 E13G20    30.22F
SAFFORD        SUNNY     84  41  21 S12       30.20F
$$

AZZ532-162200-
SOUTHWEST ARIZONA

CITY           SKY/WX    TMP DP  RH WIND       PRES   REMARKS
YUMA           MOSUNNY   95  19   6 N7        29.99F
$$

CAZ041-043-047-048-061-525>527-560>570-162200-
SOUTHERN CALIFORNIA

CITY           SKY/WX    TMP DP  RH WIND       PRES   REMARKS
DOWNTOWN L.A.  SUNNY     92  30  11 CALM      29.99F
L.A. AIRPORT   MOSUNNY   84  37  18 W15       30.01F
SAN DIEGO      MOSUNNY   84  41  21 NW12      30.00F
BURBANK        SUNNY     97  25   7 W8        30.01F
ONTARIO        MOSUNNY   96  24   7 SW5       30.02F
RIVERSIDE      SUNNY     98  31   9 CALM      30.01F
PALM SPRINGS   SUNNY     99   8   3 CALM      30.02F
EL CENTRO NAS  SUNNY     95  10   4 CALM      30.01F
IMPERIAL       MOSUNNY   95  25   8 N7        29.99F
BLYTHE         SUNNY     94   9   4 NW9       30.03F
NEEDLES        SUNNY     92   0   3 N14       30.08F
$$

NVZ020-UTZ003-162200-
SOUTHERN NEVADA-UTAH

CITY           SKY/WX    TMP DP  RH WIND       PRES   REMARKS
LAS VEGAS      MOSUNNY   81  10   7 VRB3      30.18F
SALT LAKE CITY PTSUNNY   63  28  26 NW6       30.36F
$$

NMZ009-TXZ055-162200-
NEW MEXICO-WEST TEXAS

CITY           SKY/WX    TMP DP  RH WIND       PRES   REMARKS
ALBUQUERQUE    SUNNY     69  24  18 SW9       30.38F
EL PASO        SUNNY     77  37  23 E7        30.31F
$$


........................KEY........................
SKY/WX - SKY CONDITION/WEATHER
TMP    - TEMPERATURE IN FAHRENHEIT
DP     - DEW POINT IN FAHRENHEIT
RH     - RELATIVE HUMIDITY IN PERCENT
WIND   - DIRECTION AND SPEED IN MILES PER HOUR (MPH)
VRB    - VARIABLE WIND DIRECTION
PRES   - MEAN SEA LEVEL PRESSURE IN INCHES OF MERCURY
         F - FALLING PRESSURE   R - RISING PRESSURE
         S - STEADY PRESSURE
VSB    - VISIBILITY IN MILES
HX     - HEAT INDEX IN FAHRENHEIT
WCI    - WIND CHILL INDEX IN FAHRENHEIT
TC     - TEMPERATURE IN CELSIUS WHICH IS ALSO KNOWN AS
         TEMPERATURE IN CENTIGRADE
AFB    - AIR FORCE BASE
         LUKE AFB IS LUKE AIR FORCE BASE
         DAVIS-MONTHAN IS DAVIS-MONTHAN AIR FORCE BASE
NAS    - NAVAL AIR STATION
         EL CENTRO NAS IS EL CENTRO NAVAL AIR STATION
N/A    - NOT AVAILABLE




USA.gov is the U.S. government's official web portal to all federal, state and local government web resources and services.